GFSNIL_sfc_thetae_192.txt.gz
Theta_e
357 354 354 356 354 353 352 354 362 363 363 363 361 359 354 350 347 345 341 338 336 328
358 358 356 359 360 356 361 356 362 363 361 360 357 352 349 346 344 342 340 335 333 329
357 360 360 360 360 360 361 363 362 362 359 358 353 347 347 343 340 339 332 332 333 330
357 359 360 359 360 361 363 364 364 362 359 354 347 343 345 340 336 332 332 334 331 327
358 359 358 360 360 362 362 364 364 360 356 349 344 342 340 335 331 331 331 331 329 324
357 357 358 358 361 363 363 363 360 356 349 340 341 338 335 331 330 330 331 330 326 322
356 357 357 361 363 363 364 361 357 352 344 338 333 335 331 330 330 330 329 328 324 322
359 360 361 362 363 364 363 359 355 344 335 329 331 330 331 330 330 329 327 327 323 320
360 361 361 363 364 363 360 356 347 338 332 326 326 320 323 329 327 326 326 325 323 322
362 360 362 363 363 360 355 348 342 332 326 328 324 319 320 323 326 325 327 325 324 320
363 361 362 363 360 357 350 342 334 328 326 328 325 318 318 320 326 326 325 325 323 322
361 361 361 362 358 351 345 338 330 323 324 325 319 315 315 318 325 324 323 323 322 318
363 363 362 362 354 350 343 335 327 323 326 322 322 312 311 316 322 322 319 319 319 306
363 365 365 361 350 344 339 330 324 322 324 325 323 316 309 310 322 319 316 316 314 314

GFSNIL_sfc_thetae_198.txt.gz
Theta_e
361 358 360 367 361 363 363 367 372 370 371 368 366 364 364 361 353 348 344 340 337 334
360 359 356 362 364 360 368 361 368 368 370 366 364 363 363 356 351 347 340 340 337 332
359 360 360 367 369 365 373 372 369 370 366 363 361 360 360 354 349 342 338 338 336 334
360 359 361 361 364 367 370 372 371 370 364 360 356 356 357 353 345 336 336 337 333 332
360 360 360 362 363 365 366 370 369 369 362 357 356 355 353 349 340 336 335 334 333 330
360 360 360 361 363 366 367 367 366 367 361 357 355 353 352 348 339 335 334 332 331 328
358 359 360 362 364 365 369 366 367 365 360 357 356 352 349 342 338 336 333 331 330 327
360 362 362 363 364 367 367 366 365 361 357 357 353 346 345 340 338 337 332 331 329 325
362 362 362 364 363 367 366 363 363 359 356 352 347 330 333 338 336 335 333 331 328 323
363 361 363 363 365 363 364 364 363 358 353 346 341 324 325 327 338 333 332 333 329 324
362 362 364 363 364 364 365 362 360 355 351 345 338 321 320 324 335 334 333 331 329 327
362 363 363 362 362 365 365 361 357 352 348 343 332 317 317 321 333 331 330 329 327 325
363 364 362 364 364 366 366 359 352 348 345 335 331 314 314 317 328 329 326 329 318 311
365 364 364 366 367 367 358 352 347 342 341 338 333 320 312 313 325 328 326 323 322 313

GFSNIL_sfc_thetae_201.txt.gz
Theta_e
349 349 351 352 348 348 349 355 358 356 356 356 355 353 350 345 338 332 329 325 323 322
348 349 348 347 349 350 350 353 357 355 357 355 354 350 348 343 335 330 326 324 323 321
351 350 349 348 349 351 349 352 353 355 355 353 351 349 346 342 335 328 324 325 323 321
348 352 350 350 352 356 354 355 354 354 354 351 348 348 344 337 332 327 323 323 321 320
353 352 351 349 350 354 355 355 355 356 352 350 348 347 343 340 332 326 324 323 320 317
353 352 350 351 352 354 354 355 357 357 351 349 347 346 344 340 327 324 324 321 319 317
352 352 351 352 353 354 356 356 355 357 353 348 346 345 342 331 326 324 322 320 318 317
352 353 353 353 354 355 356 357 354 355 351 348 346 344 337 330 326 324 320 321 319 314
353 352 352 353 353 356 355 355 357 354 350 345 347 335 334 331 327 326 321 319 317 314
352 352 353 353 354 354 355 353 355 352 348 344 339 329 330 332 327 324 322 320 319 318
353 352 354 353 353 353 355 354 355 351 346 341 327 322 322 326 327 322 321 322 319 315
354 353 353 353 352 355 354 355 354 350 343 338 324 318 318 319 323 322 320 319 317 314
354 354 353 354 354 355 356 356 353 345 342 334 323 315 315 317 322 320 319 317 312 317
354 354 356 355 356 355 356 356 350 343 339 334 322 314 312 313 320 321 319 318 310 304

GFSNIL_sfc_thetae_204.txt.gz
Theta_e
348 347 345 344 346 343 345 351 352 352 353 354 352 349 344 336 333 329 324 320 320 317
347 345 346 347 347 347 346 352 354 353 353 352 351 348 343 337 333 327 324 321 319 318
346 345 345 344 344 344 345 346 348 353 353 351 349 346 343 335 329 325 323 322 319 317
346 345 345 344 344 345 348 347 349 352 351 349 347 345 339 337 328 323 321 320 319 316
346 347 346 345 346 347 350 350 350 351 350 347 346 344 340 334 329 325 322 321 317 315
343 344 346 347 346 344 348 351 351 350 349 346 345 343 341 339 330 325 323 320 317 315
346 346 346 348 348 347 348 348 350 351 350 348 345 343 341 336 325 322 321 319 317 316
348 350 350 349 349 349 350 351 349 351 351 348 345 344 338 329 323 322 319 318 316 314
349 350 350 349 349 348 350 351 349 351 351 346 347 335 332 330 324 322 319 317 315 313
350 349 349 350 349 348 350 350 350 352 350 347 345 330 328 329 325 323 319 318 315 313
349 349 349 349 349 349 350 350 351 352 349 346 343 328 325 327 325 323 322 320 317 314
349 349 349 348 348 349 350 350 351 352 347 344 338 323 322 325 324 321 321 321 318 312
350 349 349 350 350 350 351 350 351 350 347 339 336 317 317 322 324 320 319 316 315 319
350 350 350 350 351 350 350 349 349 347 343 341 336 321 313 314 322 321 319 317 311 313

GFSNIL_sfc_thetae_210.txt.gz
Theta_e
345 344 343 344 344 344 343 346 352 353 353 356 354 349 343 338 331 326 325 324 322 320
347 347 345 345 345 347 348 349 356 354 354 355 353 350 343 337 333 328 325 323 322 321
347 348 348 348 346 347 349 350 354 353 355 354 352 349 343 337 334 330 325 323 322 320
346 346 347 347 347 347 348 349 348 352 353 353 351 349 344 339 332 329 327 325 322 321
345 346 346 346 346 346 346 347 348 349 350 352 351 349 345 340 334 329 327 326 322 322
344 343 344 345 346 344 345 346 348 349 350 351 351 348 346 343 337 330 329 327 324 322
344 344 344 344 344 343 344 345 346 348 350 351 351 349 347 343 339 333 329 328 326 323
345 346 346 344 344 343 343 344 344 346 348 351 351 349 347 345 341 336 330 328 326 323
344 345 344 344 344 343 343 344 344 344 345 347 349 338 335 343 344 337 331 327 325 324
343 342 343 343 344 343 343 344 345 345 346 346 348 333 331 334 344 336 330 326 324 321
344 343 344 344 344 345 345 344 345 346 348 348 348 331 327 330 344 336 332 327 324 322
344 343 344 344 345 346 346 346 346 347 348 348 349 325 324 328 341 334 331 327 324 323
345 344 344 345 346 347 347 347 348 347 349 342 349 322 321 326 341 336 333 328 323 321
346 345 346 346 347 347 347 347 346 346 348 350 346 343 318 317 343 339 334 330 325 323

GFSNIL_sfc_thetae_216.txt.gz
Theta_e
364 359 358 361 354 355 353 354 365 366 367 369 370 370 369 363 357 350 348 341 341 334
363 365 361 364 363 358 363 357 364 365 367 369 370 369 367 363 359 354 351 348 344 337
360 363 363 363 363 363 363 365 362 365 366 368 369 369 368 363 362 357 352 348 347 343
359 361 362 360 362 363 364 367 366 366 366 366 366 368 367 366 363 359 357 353 349 346
358 359 358 359 359 361 362 364 365 364 366 366 366 367 366 362 361 361 359 356 352 348
358 358 358 358 359 360 361 362 361 363 363 364 364 364 364 364 362 362 362 360 356 353
357 358 358 361 363 361 362 361 361 361 362 363 363 362 363 362 362 362 362 363 359 356
363 363 363 364 364 364 364 362 361 361 361 361 361 358 361 361 360 361 361 362 361 358
366 366 367 367 368 368 365 364 364 361 359 358 356 340 337 348 356 357 359 359 361 361
366 366 367 367 367 365 365 367 365 362 361 360 359 335 330 336 355 353 354 359 360 358
365 365 367 368 367 368 365 364 363 362 364 361 359 333 328 331 355 356 358 358 359 363
364 364 366 366 367 367 365 364 363 362 365 363 363 328 327 334 355 354 356 360 365 365
365 365 365 366 368 368 363 364 359 363 366 353 365 332 323 332 354 354 354 363 365 340
365 366 368 369 368 367 364 363 366 365 368 367 363 363 320 320 355 353 353 354 354 356